Location: Unspecified
(0.0000°N, 0.0000°E)
Time: 02:31:52
(UTC+00:00)

CZ-3C DEB - Pass Details

Date: 24 February 2026
Orbit: 408 x 32633 km, 21.5° (Epoch: 28 September)

Event Time Altitude Azimuth Distance (km) Brightness Sun altitude
Exits shadow 00:14:29 49° 42° (NE) 12,202 ? -80.5°
Maximum altitude 06:48:30 69° 67° (ENE) 22,496 ? 8.7°
Drops below altitude 10° 08:18:15 10° 108° (ESE) 8,844 ? 30.8°
Sets 08:22:08 0° 109° (ESE) 8,736 ? 31.7°
